Content
SEND FEEDBACK

Daily
Averages
Monthly
Summary
France

ROUEN, FRANCE


Home > Europe > France
Elevation: 515 feet     Latitude: 49 23N     Longitude: 001 11E

WEATHER
 
SELECT A DAY
Number of Records: 182,730;   Date Range: 7/1/96 - 11/25/14
 
SHARE

PRINT THIS DATA

[ ← Previous Day ]
WEATHER ALMANAC - FEBRUARY 18, 2013
[ Next Day → ]
[ °C ]   °F
Weather ElementAverageHighLow
Temperature36.4 °F46.4 °F (3:30 pm)30.2 °F (7:00 am)
Dewpoint30.1 °F32 °F (10:30 am)28.4 °F (3:30 am)
Humidity78.6 %93 % (7:00 am)53 % (1:00 pm)
Barometer30.07 in30.12 in (1:00 am)30.04 in (3:30 am)
Wind Speed10.2 mph15 mph (12:30 pm)
Weather ElementAverage
Visibility5.2 mi
Wind DirectionESE (99.8 °)

Weather ElementTotal
Precipitation---
Heating Degree Days26.7 (Base 65)
Averaged from 51 records on February 18, 2013
WEATHER CONDITIONS BREAKOUT
WIND DIRECTION BREAKOUT
WEATHER BY HOUR - FEBRUARY 18, 2013
[ °C ]   °F
Local TimeTemperatureDewpointHumidityBarometerVisibilityWind DirectionWind SpeedGust SpeedPrecipitationEventsConditions
12:30 AM33.8 °F30.2 °F87 %30.06 in4.3 miEast (100°)11.5 mph
1:00 AM33.0 °F30.0 °F85 %30.12 in4.0 miEast (100°)12.7 mphClear
1:00 AM33.8 °F30.2 °F87 %30.06 in4.3 miEast (100°)12.7 mph
1:30 AM33.8 °F30.2 °F87 %30.06 in4.3 miEast (100°)11.5 mph
2:00 AM33.8 °F30.2 °F87 %30.06 in4.3 miEast (100°)10.4 mph
2:30 AM33.8 °F30.2 °F87 %30.06 in5.0 miEast (100°)10.4 mph
3:00 AM33.8 °F30.2 °F87 %30.06 in5.0 miEast (100°)10.4 mph
3:30 AM33.8 °F28.4 °F81 %30.04 in5.0 miEast (100°)12.7 mph
4:00 AM32.0 °F28.4 °F87 %30.04 in5.6 miEast (90°)12.7 mph
4:30 AM32.0 °F28.4 °F87 %30.04 in5.0 miEast (90°)11.5 mph
5:00 AM32.0 °F28.4 °F87 %30.04 in4.3 miEast (90°)10.4 mph
5:30 AM32.0 °F28.4 °F87 %30.04 in4.3 miEast (90°)10.4 mph
6:00 AM32.0 °F28.4 °F87 %30.04 in4.3 miEast (90°)9.2 mph
6:30 AM32.0 °F28.4 °F87 %30.04 in3.7 miEast (90°)8.1 mph
7:00 AM31.0 °F29.0 °F87 %30.09 in4.0 miEast (90°)8.1 mph
7:00 AM30.2 °F28.4 °F93 %30.04 in3.7 miEast (90°)8.1 mph
7:30 AM30.2 °F28.4 °F93 %30.06 in3.1 miEast (90°)6.9 mphMist
8:00 AM30.2 °F28.4 °F93 %30.06 in3.1 miESE (110°)6.9 mphMist
8:30 AM32.0 °F28.4 °F87 %30.06 inEast (90°)10.4 mphMist
9:00 AM32.0 °F30.2 °F93 %30.06 in3.1 miEast (90°)11.5 mphMist
9:30 AM33.8 °F30.2 °F87 %30.06 in3.7 miEast (100°)11.5 mph
10:00 AM33.8 °F30.2 °F87 %30.09 in5.0 miEast (100°)12.7 mph
10:30 AM37.4 °F32.0 °F81 %30.09 in5.6 miEast (100°)12.7 mph
11:00 AM37.4 °F32.0 °F81 %30.09 in5.6 miEast (100°)12.7 mph
11:30 AM39.2 °F32.0 °F75 %30.09 in5.6 miESE (110°)12.7 mph
12:00 PM41.0 °F32.0 °F70 %30.09 in6.2 miESE (110°)12.7 mph
12:30 PM41.0 °F30.2 °F65 %30.09 in6.2 miESE (120°)15.0 mph
1:00 PM42.0 °F31.0 °F53 %30.11 in6.0 miESE (120°)13.8 mph
1:00 PM42.8 °F30.2 °F61 %30.09 in6.2 miESE (110°)13.8 mph
1:30 PM42.8 °F32.0 °F66 %30.06 in6.2 miSE (130°)12.7 mph
2:00 PM44.6 °F30.2 °F57 %30.06 in6.2 miESE (110°)12.7 mph
2:30 PM44.6 °F30.2 °F57 %30.06 in6.2 miESE (120°)11.5 mph
3:00 PM44.6 °F32.0 °F61 %30.06 in6.2 miESE (110°)10.4 mph
3:30 PM46.4 °F32.0 °F57 %30.06 in6.2 miESE (110°)10.4 mph
4:00 PM44.6 °F30.2 °F57 %30.06 in6.2 miESE (110°)11.5 mph
4:30 PM44.6 °F30.2 °F57 %30.06 in6.2 miESE (110°)10.4 mph
5:00 PM44.6 °F32.0 °F61 %30.06 in6.2 miESE (110°)10.4 mph
5:30 PM42.8 °F32.0 °F66 %30.06 in6.2 miEast (100°)5.8 mph
6:00 PM39.2 °F30.2 °F70 %30.06 in6.2 miEast (100°)6.9 mph
6:30 PM37.4 °F30.2 °F75 %30.06 in6.2 miEast (90°)6.9 mph
7:00 PM37.0 °F30.0 °F68 %30.12 in7.0 miEast (90°)8.1 mphClear
7:00 PM37.4 °F30.2 °F75 %30.09 in6.2 miEast (90°)8.1 mph
7:30 PM35.6 °F30.2 °F81 %30.09 in6.2 miEast (80°)9.2 mph
8:00 PM35.6 °F30.2 °F81 %30.09 in6.2 miEast (90°)8.1 mph
8:30 PM35.6 °F30.2 °F81 %30.09 in6.2 miEast (100°)8.1 mph
9:00 PM33.8 °F30.2 °F87 %30.09 in6.2 miEast (100°)6.9 mph
9:30 PM33.8 °F30.2 °F87 %30.09 in5.0 miEast (90°)9.2 mph
10:00 PM33.8 °F30.2 °F87 %30.09 in5.0 miEast (90°)9.2 mph
10:30 PM33.8 °F30.2 °F87 %30.09 in5.0 miEast (100°)6.9 mph
11:00 PM33.8 °F30.2 °F87 %30.09 in4.3 miEast (100°)8.1 mph
11:30 PM32.0 °F28.4 °F87 %30.09 in3.7 miEast (90°)6.9 mph
Hourly data recorded from LFOP, located miles away from Rouen, France







STORIES FROM OUR PARTNERS